sat.trackr.live / text

‹ back to catalog

STARLINK-37432

NORAD 68896 · 2026-097B

PAYLOAD ACTIVE UNKNOWN

§ Identity

Operator
Country
US
Launch date
2026-04-30
Launch site
AFWTR
Launch vehicle
Mass (kg)
RCS (m²)

Purposes: comms

External: N2YO · Heavens-Above · Gunter

§ Orbital elements

Epoch: 2026-09-19T19:00:56.967264Z

Period
93.91 min
Inclination
97.2834°
Eccentricity
0.0002296
Mean motion
15.33437672 rev/d
Perigee alt
464.0 km
Apogee alt
467.1 km
Semi-major
6,843.7 km
B*
3.7847e-4
RAAN
96.9502°
Arg perigee
87.5921°
Mean anomaly
272.5585°
Rev number
2,198

§ Raw data

STARLINK-374321 68896U 26097B   26262.79232601  .00012161  00000+0  37847-3 0  99912 68896  97.2834  96.9502 0002296  87.5921 272.5585 15.33437672 21989

JSON: /api/v1/satellites/68896 · /tle

For live sub-satellite position, see the globe view (requires WebGL).

§ Visibility from observer

Set your observer location to see the next 7 days of passes ≥ 10°. The values pass through the URL so the page stays shareable.

No JS? Fill the form by hand. The geolocation button needs JavaScript.